Weather reports worldwide

Advertisment
Yeovilton, United Kingdom (3853): temperature & dewpoint: 16.08.2019 19:00:00 - 22.08.2019 19:00:00 (BST)Yeovilton, United Kingdom (3853): temperature -20cm & temperature -100cm: 16.08.2019 19:00:00 - 22.08.2019 19:00:00 (BST)Yeovilton, United Kingdom (3853): wind speed & gusts: 16.08.2019 19:00:00 - 22.08.2019 19:00:00 (BST)Yeovilton, United Kingdom (3853): wind direction: 16.08.2019 19:00:00 - 22.08.2019 19:00:00 (BST)Yeovilton, United Kingdom (3853): reduced air pressure: 16.08.2019 19:00:00 - 22.08.2019 19:00:00 (BST)Yeovilton, United Kingdom (3853): visibility: 16.08.2019 19:00:00 - 22.08.2019 19:00:00 (BST)Yeovilton, United Kingdom (3853): sunshine duration: 16.08.2019 19:00:00 - 22.08.2019 19:00:00 (BST)Yeovilton, United Kingdom (3853): precipitation: 16.08.2019 19:00:00 - 22.08.2019 19:00:00 (BST)
Date & Time tt [°C] td [°C] tt -20cm [°C] tt -100cm [°C] ff [km/h] ff [kn] fx [km/h] fx [kn] dd ppp [hPa] vv [km] sd [min] rr [mm]
22.08.2019 19:00:00 18,9 14,4 - - 15 8 - - SW 1025,0 10 0 -
22.08.2019 18:00:00 20,1 14,5 - - 16 9 - - SSW 1024,6 10 0 0,0
22.08.2019 17:00:00 20,5 14,7 - - 18 10 - - SSW 1024,8 10 0 0,0
22.08.2019 16:00:00 21,0 14,2 - - 21 11 - - SSW 1024,7 10 12 0,0
22.08.2019 15:00:00 21,3 14,0 - - 21 11 - - SSW 1024,9 10 36 0,0
22.08.2019 14:00:00 20,5 13,3 - - 18 10 - - SSW 1025,0 10 12 0,0
22.08.2019 13:00:00 21,9 14,2 - - 16 9 - - SSW 1025,0 10 54 0,0
22.08.2019 12:00:00 20,5 13,1 - - 13 7 - - SW 1025,2 10 60 0,0
22.08.2019 11:00:00 19,5 12,1 - - 16 9 - - WSW 1025,4 10 60 0,0
22.08.2019 10:00:00 18,3 12,0 17,7 17,4 16 9 - - SW 1025,3 10 54 0,0
22.08.2019 09:00:00 16,7 12,2 - - 18 10 - - SW 1025,3 10 60 0,0
22.08.2019 08:00:00 15,2 12,4 - - 11 6 - - SW 1024,9 10 60 0,0
22.08.2019 07:00:00 12,6 11,0 - - 9 5 - - SSW 1024,6 21 12 0,0
22.08.2019 06:00:00 12,7 11,0 - - 9 5 - - SW 1024,6 22 0 0,0
22.08.2019 05:00:00 12,4 11,2 - - 9 5 - - SSW 1024,7 16 0 0,0
22.08.2019 04:00:00 12,6 11,5 - - 9 5 - - SSW 1024,9 15 0 0,0
22.08.2019 03:00:00 12,5 11,1 - - 11 6 - - SSW 1025,1 15 0 0,0
22.08.2019 02:00:00 12,8 11,3 - - 9 5 - - SSW 1025,2 13 0 0,0
22.08.2019 01:00:00 13,1 11,1 - - 11 6 - - SW 1025,3 18 - 0,0
22.08.2019 00:00:00 13,6 11,5 - - 11 6 - - SW 1025,5 18 0 0,0
21.08.2019 23:00:00 14,1 11,7 - - 5 3 - - SSW 1025,7 10 0 0,0
21.08.2019 22:00:00 14,5 12,3 - - 11 6 - - S 1025,6 10 0 0,0
21.08.2019 21:00:00 14,9 12,2 - - 11 6 - - SSW 1025,6 10 0 0,0
21.08.2019 20:00:00 16,0 12,1 - - 16 9 - - SSW 1025,1 10 0 0,0
21.08.2019 19:00:00 17,0 12,3 - - 22 12 - - SSW 1025,1 15 6 0,0
21.08.2019 18:00:00 18,3 11,9 - - 22 12 - - SSW 1025,3 10 60 0,0
21.08.2019 17:00:00 19,6 12,1 - - 18 10 - - S 1025,5 10 54 0,0
21.08.2019 16:00:00 20,3 11,7 - - 22 12 - - S 1025,8 10 60 0,0
21.08.2019 15:00:00 20,2 10,5 - - 21 11 - - SSW 1026,0 10 60 0,0
21.08.2019 14:00:00 20,0 8,5 - - 22 12 - - S 1026,5 10 60 0,0
21.08.2019 13:00:00 20,1 10,8 - - 22 12 - - SSW 1027,1 10 42 0,0
21.08.2019 12:00:00 19,8 11,4 - - 18 10 - - S 1027,0 10 60 0,0
21.08.2019 11:00:00 18,5 11,8 - - 13 7 - - SSW 1027,3 10 54 0,0
21.08.2019 10:00:00 16,4 12,9 17,5 17,4 8 4 - - SSW 1027,6 10 18 0,0
21.08.2019 09:00:00 15,3 13,3 - - 5 3 - - SSW 1027,6 30 18 0,0
21.08.2019 08:00:00 12,6 11,6 - - 5 3 - - SE 1027,7 19 0 0,0
21.08.2019 07:00:00 10,0 9,4 - - 5 3 - - ESE 1027,3 20 0 0,0
21.08.2019 06:00:00 9,0 8,1 - - 4 2 - - E 1027,2 21 0 0,0
21.08.2019 05:00:00 9,8 8,9 - - 2 1 - - ENE 1027,2 27 0 0,0
21.08.2019 04:00:00 10,5 9,7 - - 5 3 - - S 1027,2 26 0 0,0
21.08.2019 03:00:00 10,0 8,8 - - 4 2 - - SSE 1027,2 20 0 0,0
21.08.2019 02:00:00 11,2 9,0 - - 0 0 - - N 1027,2 35 0 0,0
21.08.2019 01:00:00 13,3 10,5 - - 8 4 - - SW 1027,1 30 - 0,0
21.08.2019 00:00:00 13,5 10,7 - - 9 5 - - SW 1027,2 30 0 0,0
20.08.2019 23:00:00 14,1 10,3 - - 8 4 - - SW 1027,3 30 0 0,0
20.08.2019 22:00:00 14,1 11,0 - - 8 4 - - SW 1027,1 18 0 0,0
20.08.2019 21:00:00 15,5 11,5 - - 2 1 - - WSW 1026,6 26 0 0,0
20.08.2019 20:00:00 17,3 11,5 - - 5 3 - - NNW 1026,2 26 6 0,0
20.08.2019 19:00:00 17,7 10,6 - - 8 4 - - NNW 1025,8 35 6 0,0
20.08.2019 18:00:00 18,5 9,9 - - 18 10 - - NW 1025,4 10 42 0,0
20.08.2019 17:00:00 19,4 9,3 - - 18 10 - - WNW 1025,0 10 36 0,0
20.08.2019 16:00:00 19,9 8,7 - - 15 8 - - WNW 1024,9 10 42 0,0
20.08.2019 15:00:00 19,7 8,4 - - 18 10 - - W 1024,6 10 48 0,0
20.08.2019 14:00:00 19,1 9,9 - - 18 10 - - NW 1024,6 10 36 0,0
20.08.2019 13:00:00 17,4 9,5 - - 16 9 - - WNW 1024,7 10 12 0,0
20.08.2019 12:00:00 16,2 9,9 - - 15 8 - - W 1024,5 10 18 0,2
20.08.2019 11:00:00 16,7 10,6 - - 9 5 - - NW 1024,2 10 24 0,0
20.08.2019 10:00:00 15,9 10,6 17,7 17,5 9 5 - - W 1023,8 10 60 0,0
20.08.2019 09:00:00 13,9 10,6 - - 5 3 - - WNW 1023,3 26 60 0,0
20.08.2019 08:00:00 11,5 11,1 - - 4 2 - - WSW 1022,5 14 42 0,0
20.08.2019 07:00:00 8,5 7,8 - - 4 2 - - E 1022,0 23 0 0,0
20.08.2019 06:00:00 10,1 9,8 - - 5 3 - - WSW 1021,4 20 0 0,0
20.08.2019 05:00:00 9,4 8,3 - - 0 0 - - N 1020,9 21 0 0,0
20.08.2019 04:00:00 10,4 9,5 - - 5 3 - - SW 1020,5 21 0 0,0
20.08.2019 03:00:00 10,5 8,0 - - 4 2 - - W 1020,0 20 0 0,0
20.08.2019 02:00:00 12,1 9,6 - - 9 5 - - WSW 1020,1 35 0 0,0
20.08.2019 01:00:00 12,0 9,5 - - 8 4 - - SSW 1020,1 10 - 0,0
20.08.2019 00:00:00 13,0 9,6 - - 9 5 - - SW 1020,0 10 0 0,0
19.08.2019 23:00:00 13,4 9,8 - - 9 5 - - WSW 1019,7 10 0 0,0
19.08.2019 22:00:00 13,5 9,5 - - 8 4 - - SW 1019,3 20 0 0,0
19.08.2019 21:00:00 15,5 9,6 - - 11 6 - - WSW 1018,7 10 0 0,0
19.08.2019 20:00:00 16,9 10,3 - - 21 11 - - W 1018,0 10 12 0,0
19.08.2019 19:00:00 17,9 9,5 - - 16 9 - - W 1017,4 10 12 0,0
19.08.2019 18:00:00 19,3 8,8 - - 28 15 - - W 1017,0 10 48 0,0
19.08.2019 17:00:00 19,5 8,6 - - 29 16 46 25 W 1016,7 10 48 0,0
19.08.2019 16:00:00 20,4 8,5 - - 34 18 46 25 W 1016,4 10 36 0,0
19.08.2019 15:00:00 20,4 9,2 - - 35 19 52 28 W 1016,1 10 48 0,0
19.08.2019 14:00:00 19,4 9,3 - - 26 14 - - W 1015,8 10 36 0,2
19.08.2019 13:00:00 17,7 11,2 - - 28 15 48 26 WNW 1015,4 10 18 0,0
19.08.2019 12:00:00 17,8 10,1 - - 35 19 - - W 1015,0 10 12 0,0
19.08.2019 11:00:00 16,2 12,1 - - 26 14 - - W 1014,6 10 6 0,0
19.08.2019 10:00:00 15,0 12,7 17,9 17,7 21 11 - - W 1014,2 10 0 0,6
19.08.2019 09:00:00 16,0 12,3 - - 18 10 - - WSW 1013,4 40 12 0,0
19.08.2019 08:00:00 14,9 12,0 - - 15 8 - - SW 1013,0 30 30 0,0
19.08.2019 07:00:00 13,5 11,0 - - 21 11 - - SSW 1012,5 30 0 0,0
19.08.2019 06:00:00 13,0 10,7 - - 18 10 - - SSW 1012,1 24 0 0,0
19.08.2019 05:00:00 13,0 10,9 - - 16 9 - - SSW 1011,7 20 0 0,0
19.08.2019 04:00:00 12,9 10,4 - - 15 8 - - SW 1011,2 10 0 0,0
19.08.2019 03:00:00 13,4 10,6 - - 9 5 - - WSW 1011,3 28 0 0,0
19.08.2019 02:00:00 13,0 10,6 - - 15 8 - - SSW 1011,2 28 0 0,0
19.08.2019 01:00:00 13,6 10,8 - - 18 10 - - SSW 1011,0 30 - 0,0
19.08.2019 00:00:00 14,4 10,9 - - 16 9 - - SW 1010,7 10 0 0,0
18.08.2019 23:00:00 14,0 10,8 - - 13 7 - - SSW 1010,4 29 0 0,0
18.08.2019 22:00:00 14,3 10,8 - - 9 5 - - SW 1009,9 27 0 0,0
18.08.2019 21:00:00 15,0 10,3 - - 13 7 - - SW 1009,3 6 0 0,0
18.08.2019 20:00:00 16,9 9,9 - - 13 7 - - WSW 1008,6 40 42 0,0
18.08.2019 19:00:00 18,2 8,4 - - 29 16 - - W 1008,1 30 54 0,0
18.08.2019 18:00:00 18,8 10,6 - - 24 13 - - W 1007,8 40 24 0,0
18.08.2019 17:00:00 17,7 10,5 - - 29 16 - - W 1007,5 45 42 0,0
18.08.2019 16:00:00 19,9 10,9 - - 21 11 - - SW 1007,0 45 6 0,0
18.08.2019 15:00:00 18,9 9,5 - - 31 17 46 25 W 1006,8 40 24 0,0
18.08.2019 14:00:00 19,9 10,7 - - 22 12 - - WSW 1006,2 40 36 0,0
18.08.2019 13:00:00 19,1 9,6 - - 28 15 - - W 1005,9 10 18 0,0
18.08.2019 12:00:00 19,0 10,3 - - 21 11 - - WSW 1005,4 35 54 0,0
18.08.2019 11:00:00 17,9 10,7 - - 22 12 - - W 1005,2 27 60 0,0
18.08.2019 10:00:00 16,7 10,8 18,0 17,7 24 13 - - W 1004,7 10 42 0,0
18.08.2019 09:00:00 15,6 12,6 - - 13 7 - - SW 1003,8 35 24 0,0
18.08.2019 08:00:00 14,2 13,0 - - 11 6 - - SSW 1003,7 30 0 0,6
18.08.2019 07:00:00 14,3 12,9 - - 11 6 - - SW 1003,0 28 0 0,2
18.08.2019 06:00:00 14,7 12,6 - - 9 5 - - SSW 1002,8 35 0 0,0
18.08.2019 05:00:00 14,6 12,2 - - 13 7 - - SSW 1002,9 35 0 0,0
18.08.2019 04:00:00 14,7 11,9 - - 15 8 - - SSW 1003,3 40 0 0,0
18.08.2019 03:00:00 14,8 11,6 - - 13 7 - - SSW 1003,9 30 0 0,0
18.08.2019 02:00:00 15,0 11,4 - - 13 7 - - S 1004,2 35 0 0,0
18.08.2019 01:00:00 15,3 11,4 - - 11 6 - - SSW 1004,6 35 - 0,0
18.08.2019 00:00:00 15,8 11,2 - - 13 7 - - SW 1005,1 10 0 0,0
17.08.2019 23:00:00 16,4 12,0 - - 15 8 - - SW 1005,2 10 0 0,0
17.08.2019 22:00:00 16,6 12,7 - - 15 8 - - SSW 1005,6 27 0 0,0
17.08.2019 21:00:00 17,0 13,0 - - 16 9 - - SSW 1005,5 24 0 0,0
17.08.2019 20:00:00 17,8 13,2 - - 13 7 - - SSW 1005,3 24 0 0,0
17.08.2019 19:00:00 18,8 12,7 - - 21 11 - - SSW 1005,2 35 24 0,0
17.08.2019 18:00:00 19,3 12,8 - - 21 11 - - SSW 1005,3 30 18 0,0
17.08.2019 17:00:00 20,9 14,4 - - 26 14 - - SSW 1004,9 10 36 0,0
17.08.2019 16:00:00 20,9 14,2 - - 28 15 - - S 1005,4 35 42 0,0
17.08.2019 15:00:00 19,9 12,8 - - 26 14 - - SSW 1005,6 21 18 0,0
17.08.2019 14:00:00 20,3 10,7 - - 26 14 - - W 1005,6 10 30 0,0
17.08.2019 13:00:00 20,0 11,1 - - 15 8 - - WSW 1005,6 30 48 0,0
17.08.2019 12:00:00 19,5 11,7 - - 18 10 - - WSW 1005,6 40 54 0,0
17.08.2019 11:00:00 17,9 13,3 - - 13 7 - - WSW 1005,7 10 12 0,0
17.08.2019 10:00:00 17,4 13,1 17,9 17,7 18 10 - - WSW 1005,5 20 18 0,0
17.08.2019 09:00:00 16,4 13,6 - - 18 10 - - SW 1004,9 30 24 0,0
17.08.2019 08:00:00 15,6 12,9 - - 15 8 - - SW 1004,7 16 60 0,0
17.08.2019 07:00:00 13,7 12,6 - - 13 7 - - S 1004,4 19 6 0,0
17.08.2019 06:00:00 12,7 11,7 - - 9 5 - - S 1004,5 24 0 0,0
17.08.2019 05:00:00 13,3 12,2 - - 4 2 - - SW 1004,4 22 0 0,2
17.08.2019 04:00:00 13,6 12,3 - - 9 5 - - SSW 1004,3 21 0 0,0
17.08.2019 03:00:00 14,7 13,2 - - 15 8 - - W 1004,2 23 0 0,0
17.08.2019 02:00:00 16,4 14,5 - - 18 10 - - WSW 1003,8 45 0 0,0
17.08.2019 01:00:00 17,3 16,7 - - 13 7 - - W 1003,4 35 - 0,2
17.08.2019 00:00:00 17,5 16,8 - - 18 10 - - SSW 1003,6 14 0 0,0
16.08.2019 23:00:00 17,5 16,7 - - 21 11 - - SSW 1003,7 50 0 0,8
16.08.2019 22:00:00 17,4 16,6 - - 18 10 - - SSW 1003,8 50 0 1,2
16.08.2019 21:00:00 17,4 16,5 - - 26 14 - - SSW 1003,7 30 0 0,2
16.08.2019 20:00:00 17,1 16,3 - - 34 18 54 29 SSW 1004,1 9 0 0,0
16.08.2019 19:00:00 17,1 16,1 - - 35 19 63 34 SSW 1004,8 11 0 0,2

tt = temperature
td = dewpoint
tt -20cm = temperature -20cm
tt -100cm = temperature -100cm
ff = wind speed
fx = gusts
dd = wind direction
ppp = reduced air pressure
vv = visibility
sd = sunshine duration
rr = precipitation

Next stations